Terminal Aerodrome Forecast
Issued by NWS

Home | Current Version | Previous Version | Text Only | Print | Product List | Glossary On
Versions: 1 2 3 4 5 6 7 8 9 10 11 12 13
000
FTUS45 KRIW 281600 AAA
TAFCPR
TAF AMD
KCPR 281631Z 2817/2912 25010KT P6SM VCSH SCT040 BKN080
      TEMPO 2817/2818 P6SM -RA BKN025
     FM281800 30009KT 4SM -RASN BR SCT015 OVC030
     FM290000 33008KT P6SM VCSH SCT030 OVC050
     FM290700 VRB05KT P6SM VCFG FEW050=

USA.gov is the U.S. government's official web portal to all federal, state and local government web resources and services.